TimeEDT,TemperatureF,Dew PointF,Humidity,Sea Level PressureIn,VisibilityMPH,Wind Direction,Wind SpeedMPH,Gust SpeedMPH,PrecipitationIn,Events,Conditions,WindDirDegrees,DateUTC
12:15 AM,46.4,33.8,62,29.83,10.0,NW,9.2,16.1,N/A,,Overcast,310,2012-11-03 04:15:00
12:35 AM,46.4,33.8,62,29.83,10.0,NW,10.4,19.6,N/A,,Mostly Cloudy,310,2012-11-03 04:35:00
12:55 AM,46.4,32.0,57,29.83,10.0,NW,9.2,18.4,N/A,,Mostly Cloudy,320,2012-11-03 04:55:00
1:15 AM,46.4,32.0,57,29.83,10.0,WNW,11.5,16.1,N/A,,Mostly Cloudy,290,2012-11-03 05:15:00
1:35 AM,46.4,32.0,57,29.83,10.0,WNW,13.8,24.2,N/A,,Overcast,290,2012-11-03 05:35:00
1:55 AM,46.4,33.8,62,29.83,10.0,NW,10.4,19.6,N/A,,Overcast,310,2012-11-03 05:55:00
2:15 AM,46.4,32.0,57,29.83,10.0,WNW,12.7,-,N/A,,Overcast,290,2012-11-03 06:15:00
2:35 AM,46.4,32.0,57,29.83,10.0,WNW,11.5,20.7,N/A,,Overcast,290,2012-11-03 06:35:00
2:55 AM,46.4,32.0,57,29.83,10.0,WNW,12.7,20.7,N/A,,Overcast,300,2012-11-03 06:55:00
3:15 AM,46.4,32.0,57,29.83,10.0,WNW,11.5,17.3,N/A,,Overcast,300,2012-11-03 07:15:00
3:35 AM,46.4,32.0,57,29.83,10.0,WNW,11.5,20.7,N/A,,Overcast,300,2012-11-03 07:35:00
3:55 AM,46.4,30.2,53,29.83,10.0,WNW,13.8,21.9,N/A,,Overcast,290,2012-11-03 07:55:00
4:15 AM,46.4,32.0,57,29.84,10.0,WNW,13.8,20.7,N/A,,Overcast,290,2012-11-03 08:15:00
4:35 AM,46.4,30.2,53,29.84,10.0,WNW,12.7,18.4,N/A,,Overcast,300,2012-11-03 08:35:00
4:55 AM,46.4,30.2,53,29.84,10.0,WNW,12.7,-,N/A,,Overcast,290,2012-11-03 08:55:00
5:15 AM,46.4,30.2,53,29.85,10.0,WNW,13.8,18.4,N/A,,Overcast,290,2012-11-03 09:15:00
5:35 AM,46.4,30.2,53,29.86,10.0,WNW,16.1,20.7,N/A,,Overcast,300,2012-11-03 09:35:00
5:55 AM,44.6,30.2,57,29.86,10.0,WNW,11.5,23.0,N/A,,Overcast,300,2012-11-03 09:55:00
6:15 AM,44.6,28.4,53,29.87,10.0,WNW,17.3,24.2,N/A,,Overcast,300,2012-11-03 10:15:00
6:35 AM,44.6,30.2,57,29.87,10.0,WNW,9.2,21.9,N/A,,Overcast,300,2012-11-03 10:35:00
6:55 AM,44.6,30.2,57,29.87,10.0,WNW,13.8,21.9,N/A,,Overcast,300,2012-11-03 10:55:00
7:15 AM,44.6,28.4,53,29.88,10.0,WNW,11.5,21.9,N/A,,Overcast,300,2012-11-03 11:15:00
7:35 AM,44.6,28.4,53,29.89,10.0,NW,10.4,23.0,N/A,,Overcast,320,2012-11-03 11:35:00
7:55 AM,44.6,30.2,57,29.89,10.0,NW,10.4,21.9,N/A,,Overcast,320,2012-11-03 11:55:00
8:15 AM,44.6,28.4,53,29.90,10.0,NW,9.2,17.3,N/A,,Overcast,320,2012-11-03 12:15:00
8:35 AM,44.6,28.4,53,29.91,10.0,WNW,8.1,18.4,N/A,,Overcast,300,2012-11-03 12:35:00
8:55 AM,44.6,28.4,53,29.91,10.0,NW,16.1,23.0,N/A,,Overcast,320,2012-11-03 12:55:00
9:15 AM,44.6,28.4,53,29.92,10.0,NW,10.4,20.7,N/A,,Overcast,310,2012-11-03 13:15:00
9:35 AM,44.6,28.4,53,29.92,10.0,WNW,13.8,21.9,N/A,,Overcast,300,2012-11-03 13:35:00
9:55 AM,44.6,28.4,53,29.92,10.0,NW,11.5,23.0,N/A,,Overcast,320,2012-11-03 13:55:00
10:15 AM,44.6,26.6,49,29.92,10.0,NW,16.1,20.7,N/A,,Overcast,320,2012-11-03 14:15:00
10:35 AM,46.4,28.4,50,29.92,10.0,NW,10.4,18.4,N/A,,Overcast,310,2012-11-03 14:35:00
10:55 AM,44.6,26.6,49,29.92,10.0,NW,16.1,25.3,N/A,,Overcast,310,2012-11-03 14:55:00
11:15 AM,46.4,28.4,50,29.92,10.0,NW,12.7,23.0,N/A,,Overcast,310,2012-11-03 15:15:00
11:35 AM,46.4,28.4,50,29.92,10.0,NW,13.8,23.0,N/A,,Overcast,320,2012-11-03 15:35:00
11:55 AM,46.4,28.4,50,29.91,10.0,NW,13.8,23.0,N/A,,Overcast,310,2012-11-03 15:55:00
12:15 PM,46.4,28.4,50,29.91,10.0,WNW,16.1,21.9,N/A,,Overcast,300,2012-11-03 16:15:00
12:35 PM,46.4,28.4,50,29.91,10.0,NW,13.8,24.2,N/A,,Overcast,320,2012-11-03 16:35:00
12:55 PM,46.4,28.4,50,29.90,10.0,NW,15.0,21.9,N/A,,Overcast,310,2012-11-03 16:55:00
1:15 PM,46.4,28.4,50,29.90,10.0,NW,11.5,21.9,N/A,,Overcast,320,2012-11-03 17:15:00
1:35 PM,46.4,30.2,53,29.90,10.0,NW,10.4,23.0,N/A,,Overcast,310,2012-11-03 17:35:00
1:55 PM,46.4,28.4,50,29.90,10.0,NW,9.2,24.2,N/A,,Overcast,310,2012-11-03 17:55:00
2:15 PM,46.4,28.4,50,29.90,10.0,NW,11.5,20.7,N/A,,Overcast,310,2012-11-03 18:15:00
2:35 PM,46.4,28.4,50,29.90,10.0,NW,11.5,23.0,N/A,,Overcast,310,2012-11-03 18:35:00
2:55 PM,46.4,30.2,53,29.91,10.0,NW,16.1,25.3,N/A,,Overcast,310,2012-11-03 18:55:00
3:15 PM,46.4,30.2,53,29.91,10.0,WNW,16.1,23.0,N/A,,Overcast,300,2012-11-03 19:15:00
3:35 PM,46.4,30.2,53,29.91,10.0,WNW,11.5,26.5,N/A,,Overcast,300,2012-11-03 19:35:00
3:55 PM,46.4,30.2,53,29.92,10.0,WNW,13.8,24.2,N/A,,Overcast,300,2012-11-03 19:55:00
4:15 PM,46.4,30.2,53,29.92,10.0,NW,10.4,20.7,N/A,,Overcast,310,2012-11-03 20:15:00
4:35 PM,46.4,30.2,53,29.92,10.0,NW,12.7,23.0,N/A,,Overcast,310,2012-11-03 20:35:00
4:55 PM,46.4,30.2,53,29.92,10.0,NW,10.4,21.9,N/A,,Overcast,310,2012-11-03 20:55:00
5:15 PM,46.4,30.2,53,29.92,10.0,NW,13.8,21.9,N/A,,Overcast,310,2012-11-03 21:15:00
5:35 PM,46.4,28.4,50,29.93,10.0,NW,16.1,21.9,N/A,,Overcast,320,2012-11-03 21:35:00
5:55 PM,46.4,30.2,53,29.93,10.0,NW,11.5,23.0,N/A,,Overcast,320,2012-11-03 21:55:00
6:15 PM,46.4,28.4,50,29.94,10.0,NW,12.7,24.2,N/A,,Overcast,310,2012-11-03 22:15:00
6:35 PM,46.4,28.4,50,29.94,10.0,NW,15.0,28.8,N/A,,Scattered Clouds,310,2012-11-03 22:35:00
6:55 PM,46.4,28.4,50,29.95,10.0,WNW,15.0,23.0,N/A,,Clear,300,2012-11-03 22:55:00
7:15 PM,46.4,28.4,50,29.95,10.0,WNW,12.7,19.6,N/A,,Mostly Cloudy,300,2012-11-03 23:15:00
7:35 PM,46.4,30.2,53,29.96,10.0,WNW,9.2,18.4,N/A,,Scattered Clouds,300,2012-11-03 23:35:00
7:55 PM,46.4,30.2,53,29.97,10.0,NW,10.4,18.4,N/A,,Mostly Cloudy,310,2012-11-03 23:55:00
8:15 PM,46.4,30.2,53,29.97,10.0,NW,11.5,19.6,N/A,,Overcast,310,2012-11-04 00:15:00
8:35 PM,46.4,30.2,53,29.96,10.0,NW,11.5,17.3,N/A,,Overcast,310,2012-11-04 00:35:00
8:55 PM,46.4,28.4,50,29.96,10.0,NW,11.5,18.4,N/A,,Overcast,320,2012-11-04 00:55:00
9:15 PM,46.4,28.4,50,29.97,10.0,NW,13.8,23.0,N/A,,Overcast,320,2012-11-04 01:15:00
9:35 PM,46.4,28.4,50,29.98,10.0,NW,11.5,20.7,N/A,,Overcast,320,2012-11-04 01:35:00
9:55 PM,46.4,28.4,50,29.98,10.0,NW,12.7,21.9,N/A,,Overcast,320,2012-11-04 01:55:00
10:15 PM,46.4,28.4,50,29.99,10.0,NNW,10.4,18.4,N/A,,Overcast,330,2012-11-04 02:15:00
10:35 PM,46.4,28.4,50,29.98,10.0,NNW,10.4,19.6,N/A,,Overcast,330,2012-11-04 02:35:00
10:55 PM,46.4,28.4,50,29.99,10.0,NNW,9.2,17.3,N/A,,Overcast,330,2012-11-04 02:55:00
11:15 PM,46.4,28.4,50,29.99,10.0,NW,9.2,18.4,N/A,,Overcast,310,2012-11-04 03:15:00
11:35 PM,46.4,28.4,50,29.99,10.0,NW,12.7,20.7,N/A,,Overcast,310,2012-11-04 03:35:00
11:55 PM,46.4,28.4,50,29.99,10.0,NW,9.2,16.1,N/A,,Overcast,320,2012-11-04 03:55:00